SCP
0 0 0 0 0 0 0 0 0 0 0 0 0 0 0 0 0 0 0 0 0 0 0 0 0 0 0 0 0 0 0 0 0 0 0 0 0 0 0 0 0 0 0 0
0 0 0 0 0 0 0 0 0 0 0 0 0 0 0 0 0 0 0 0 0 0 0 0 0 0 0 0 0 0 0 0 0 0 0 0 0 0 0 0 0 0 0 0
0 0 0 0 0 0 0 0 0 0 0 0 0 0 0 0 0 0 0 0 0 0 0 0 0 0 0 0 0 0 0 0 0 0 0 0 0 0 0 0 0 0 0 0
0 0 0 0 0 0 0 0 0 0 0 0 0 0 0 0 0 0 0 0 0 0 0 0 0 0 0 0 0 0 0 0 0 0 0 0 0 0 0 0 0 0 0 0
0 0 0 0 0 0 0 0 0 0 0 0 0 0 0 0 0 0 0 0 0 0 0 0 0 0 0 0 0 0 0 0 0 0 0 0 0 0 0 0 0 0 0 0
0 0 0 -0 0 0 0 0 0 0 0 0 0 0 0 0 0 0 0 0 0 0 0 0 0 0 0 0 0 0 0 0 0 0 0 0 0 0 0 0 0 0 0 0
0 0 0 0 0 0 0 0 0 0 0 0 0 0 0 0 0 0 0 0 0 0 0 0 0 0 0 0 0 0 0 0 0 0 0 0 0 0 0 0 0 0 0 0
0 0 0 0 0 0 0 0 0 0 0 0 0 0 0 0 0 0 0 0 0 0 0 0 0 0 0 0 0 0 0 0 0 0 0 0 0 0 0 0 0 0 0 0
0 0 0 0 0 0 0 0 0 0 0 0 0 0 0 0 0 0 0 0 0 0 0 0 0 0 0 0 0 0 0 0 0 0 0 0 0 0 0 0 0 0 0 0
0 0 0 0 0 0 0 0 0 0 0 0 0 0 0 0 0 0 0 0 0 0 0 0 0 0 0 0 0 0 0 0 0 0 0 0 0 0 0 0 0 0 0 0
0 0 0 0 0 0 0 0 0 0 0 0 0 0 0 0 0 0 0 0 0 0 0 0 0 0 0 0 0 0 0 0 0 0 0 0 0 0 0 0 0 0 0 0
0 0 0 0 0 0 0 0 0 0 0 0 0 0 0 0 0 0 0 0 0 0 0 0 0 0 0 0 0 0 0 0 0 0 0 0 0 0 0 0 0 0 0 0
0 0 0 0 0 0 0 0 0 0 0 0 0 0 0 0 0 0 0 0 0 0 0 0 0 0 0 0 0 0 0 0 0 0 0 0 0 0 0 0 0 0 0 0
0 0 0 0 0 0 0 0 0 0 0 0 0 0 0 0 0 0 0 0 0 0 0 0 0 0 0 0 0 0 0 0 0 0 0 0 0 0 0 0 0 0 0 0
0 0 0 0 0 0 0 0 0 0 0 0 0 0 0 0 0 0 0 0 0 0 0 0 0 0 0 0 0 0 0 0 0 0 0 0 0 0 0 0 0 0 0 0
0 0 0 0 0 0 0 0 0 0 0 0 0 0 0 0 0 0 0 0 0 0 0 0 0 0 0 0 0 0 0 0 0 0 0 0 0 0 0 0 0 0 0 0
0 0 0 0 0 0 0 0 0 0 0 0 0 0 0 0 0 0 0 0 0 0 0 0 0 0 0 0 0 0 0 0 0 0 0 0 0 0 0 0 0 0 0 0
0 0 0 0 0 0 0 0 0 0 0 0 0 0 0 0 0 0 0 0 0 0 0 0 0 0 0 0 0 0 0 0 0 0 0 0 0 0 0 0 0 0 0 0
0 0 0 0 0 0 0 0 0 0 0 0 0 0 0 0 0 0 0 0 0 0 0 0 0 0 0 0 0 0 0 0 0 0 0 0 0 0 0 0 0 0 0 0
0 0 0 0 0 0 0 0 0 0 0 0 0 0 0 0 0 0 0 0 0 0 0 0 0 0 0 0 0 0 0 0 0 0 0 0 0 0 0 0 0 0 0 0
0 0 0 0 0 0 0 0 0 0 0 0 0 0 0 0 0 0 0 0 0 0 0 0 0 0 0 0 0 0 0 0 0 0 0 0 0 0 0 0 0 0 0 0
0 0 0 0 0 0 0 0 0 0 0 0 0 0 0 0 0 0 0 0 0 0 0 0 0 0 0 0 0 0 0 0 0 0 0 0 0 0 0 0 0 0 0 0
0 0 0 0 0 0 0 0 0 0 0 0 0 0 0 0 0 0 0 0 0 0 0 0 0 0 0 0 0 0 0 0 0 0 0 0 0 0 0 0 0 0 0 0
0 0 0 0 0 0 0 0 0 0 0 0 0 0 0 0 0 0 0 0 0 0 0 0 0 0 0 0 0 0 0 0 0 0 0 0 0 0 0 0 0 0 0 0
0 0 0 0 0 0 0 0 0 0 0 0 0 0 0 0 0 0 0 0 0 0 0 0 0 0 0 0 0 0 0 0 0 0 0 0 0 0 0 0 0 0 0 0
0 0 0 -0 -0 -0 0 0 0 0 0 0 0 0 0 0 0 0 0 0 0 0 0 0 0 0 0 0 0 0 0 0 0 0 0 0 0 0 0 0 0 0 0 0
0 -0 0 0 -0 -0 0 0 0 0 0 0 0 0 0 0 0 0 0 0 0 0 0 0 0 0 0 0 0 0 0 0 0 0 0 0 0 0 0 0 0 0 0 0
Wind_Speed_500mb
61 53 29 36 49 57 51 61 42 61 63 54 23 21 18 32 31 26 36 41 44 48 49 47 44 42 41 41 42 42 43 44 46 47 50 52 53 53 52 51 50 50 50 51
54 42 59 48 47 53 51 61 56 61 59 48 37 56 34 41 37 39 43 49 53 52 50 48 45 43 40 39 37 36 36 36 39 41 42 40 39 39 38 38 37 38 37 38
46 58 36 52 62 64 59 67 65 59 78 34 14 21 49 66 54 57 60 58 57 58 52 47 48 44 41 38 36 33 31 32 32 32 33 34 35 35 34 34 33 34 34 34
26 20 44 38 52 52 64 72 71 62 48 52 57 61 66 70 73 67 71 69 63 59 53 53 52 49 44 41 39 37 36 35 35 35 36 37 37 37 36 36 35 35 35 34
16 33 6 12 23 64 51 70 65 58 67 56 27 43 51 82 86 83 82 80 71 73 65 56 55 55 51 47 45 43 41 38 37 38 39 38 37 36 35 35 35 33 34 36
11 25 33 62 22 29 22 43 43 66 77 69 37 21 38 90 104 101 103 91 73 76 69 66 59 59 56 52 49 45 41 39 40 42 43 42 41 39 37 34 31 31 32 32
40 18 14 8 26 63 35 50 42 75 90 81 34 69 134 75 87 109 109 88 82 74 88 70 63 64 62 57 51 46 45 47 49 50 48 44 40 36 30 26 23 24 24 24
26 30 40 28 43 49 67 10 31 70 93 60 81 97 103 80 85 82 89 100 101 88 91 81 74 74 66 60 57 55 53 52 52 50 46 41 34 30 28 25 22 20 17 15
23 23 5 65 22 6 12 29 8 44 59 84 85 95 88 86 89 82 73 77 91 87 85 84 79 72 67 64 62 55 53 52 50 46 41 36 32 29 25 20 16 13 13 13
8 15 11 49 4 11 13 11 13 21 27 34 73 79 93 99 98 93 87 84 87 89 88 79 76 74 70 65 61 58 55 50 48 44 42 39 34 29 23 17 14 13 11 11
7 8 7 8 23 31 25 17 21 20 26 36 38 48 65 78 82 79 84 81 81 88 86 78 74 73 71 68 61 56 53 51 52 49 45 42 39 34 27 21 14 9 7 8
5 20 19 15 42 38 33 21 19 21 18 20 18 25 31 46 54 63 67 68 73 73 71 70 68 66 65 63 60 57 56 57 55 53 49 45 38 31 25 19 17 15 16 13
17 53 43 42 26 32 34 24 21 15 24 24 25 24 28 38 49 49 49 55 60 61 59 59 58 57 57 57 57 57 57 58 57 52 48 42 35 30 27 26 22 19 17 12
42 47 6 24 27 39 28 17 11 8 11 12 18 20 26 34 42 46 48 53 53 51 50 51 50 50 53 55 57 58 57 54 52 49 43 38 34 32 27 23 21 20 17 13
55 32 25 29 24 30 24 18 14 8 9 5 1 7 17 26 33 40 46 48 47 44 44 46 46 47 49 53 54 54 52 49 46 44 41 38 36 33 30 28 24 20 16 11
49 21 36 42 41 45 41 32 27 26 18 17 10 2 9 18 26 33 37 38 39 42 43 44 45 46 49 50 50 47 46 45 45 43 41 39 36 33 30 28 25 21 15 8
41 53 64 58 52 48 46 40 35 32 30 25 20 11 3 13 23 26 28 32 34 36 37 39 43 45 46 46 45 44 45 44 42 41 39 38 37 35 31 28 22 15 10 8
27 25 30 33 37 39 41 41 41 39 37 29 22 14 7 12 15 19 21 23 25 28 30 32 34 37 39 39 40 41 40 39 40 40 41 40 36 31 26 20 15 10 11 15
32 33 35 39 38 37 39 42 42 37 31 27 20 18 16 15 15 16 17 18 19 19 21 23 24 27 31 33 35 37 39 40 40 39 37 34 31 26 23 17 15 17 20 25
33 33 33 33 34 40 41 39 35 32 30 27 23 19 18 19 17 13 12 11 14 13 15 17 21 23 26 30 34 35 36 36 34 34 31 28 25 21 24 24 24 26 30 35
38 37 35 33 32 35 38 37 34 33 31 25 22 21 17 12 9 7 9 8 12 15 16 20 21 23 26 29 30 29 29 28 28 26 28 33 38 39 37 35 38 40 42 43
34 34 34 33 32 31 36 36 33 29 28 25 22 19 16 11 6 2 2 4 6 8 11 15 18 23 26 31 34 35 37 40 40 40 40 41 39 40 44 49 49 47 46 47
32 32 32 32 34 34 32 31 31 30 28 25 23 20 17 14 12 9 6 7 8 11 14 18 22 24 26 29 31 33 35 38 41 45 47 47 45 48 53 52 52 50 51 51
28 29 32 32 31 29 29 32 30 29 27 26 24 22 20 18 17 16 15 16 17 18 21 25 28 32 34 35 36 38 41 43 46 47 46 46 49 54 53 54 57 58 58 56
28 30 31 30 29 32 32 31 30 28 26 26 26 26 26 25 25 25 26 28 30 31 32 34 36 39 41 42 43 45 47 49 50 52 55 59 61 62 61 60 61 60 59 58
29 32 35 38 38 39 38 38 36 36 37 33 28 31 32 33 33 34 35 36 37 39 40 40 43 45 47 49 51 52 54 55 57 59 61 62 61 61 61 61 61 62 63 63
28 30 29 28 31 35 38 41 45 43 43 47 46 40 40 41 42 44 45 46 47 48 49 49 49 50 52 52 53 54 55 56 57 58 59 62 62 63 63 64 65 65 66 67
Wind_Direction_500mb
236 254 203 208 211 209 208 220 214 236 240 244 241 267 260 277 271 248 230 226 222 221 220 218 216 213 210 213 219 226 228 228 231 233 236 240 245 249 253 256 258 260 260 260
245 232 237 222 214 209 214 226 232 248 253 243 230 241 248 255 249 248 236 229 223 218 218 218 216 211 205 203 205 209 213 217 221 226 231 235 240 244 248 252 254 255 256 257
242 221 223 231 208 211 216 222 215 225 233 221 191 215 231 247 247 239 236 231 225 216 210 207 204 201 201 200 203 208 214 218 222 226 230 235 238 240 242 244 247 250 252 254
243 211 217 231 216 210 212 221 223 238 248 235 232 235 239 244 246 244 238 232 229 212 206 204 202 197 200 205 211 217 221 225 227 230 231 231 231 232 234 236 241 246 252 259
243 219 300 252 198 198 198 228 219 229 245 244 252 224 235 236 243 246 242 240 232 211 204 206 208 205 207 212 218 220 222 223 225 229 230 230 231 232 235 239 245 252 258 262
247 230 220 233 158 164 179 260 207 216 232 234 212 225 240 228 228 237 243 243 240 219 211 216 216 213 213 215 214 213 217 225 232 234 235 235 235 236 240 246 254 260 262 267
223 246 268 200 166 140 172 233 210 211 226 230 212 224 239 238 237 236 241 245 245 229 218 221 220 216 214 214 213 216 224 233 236 237 235 236 236 238 241 245 248 254 260 266
214 219 248 155 154 168 211 264 235 205 226 226 222 234 241 237 238 236 237 241 242 235 224 222 220 216 213 215 215 222 230 234 233 230 230 229 228 228 226 228 228 235 245 258
192 219 326 174 204 2 356 217 228 214 223 222 226 232 237 235 230 229 228 231 233 230 218 214 214 214 216 218 222 229 233 231 227 222 218 215 213 215 212 208 210 227 249 265
139 229 199 208 353 226 19 337 265 234 246 238 233 237 238 238 233 230 229 231 227 216 210 209 209 214 218 221 227 229 227 224 220 214 208 203 200 197 199 201 212 228 257 284
272 28 319 87 21 340 306 292 325 283 266 269 262 254 246 241 236 231 227 223 218 212 205 205 208 212 217 223 225 224 221 216 210 203 196 194 192 192 196 201 201 207 234 253
346 9 317 296 342 332 327 327 294 293 292 266 246 251 245 234 226 220 214 210 204 202 201 204 209 214 218 219 219 217 213 206 201 197 193 194 194 193 197 198 210 217 223 222
317 317 294 297 310 331 335 321 310 281 274 268 245 241 228 225 214 207 201 204 206 207 208 209 208 210 214 214 211 207 205 201 198 196 195 195 193 195 198 193 199 202 201 199
334 345 359 355 328 337 338 341 334 308 278 261 242 238 220 215 209 208 209 212 214 211 204 203 204 205 205 204 203 200 197 199 198 196 195 195 195 196 198 198 201 193 187 169
348 2 332 327 339 7 16 16 36 12 359 351 85 202 206 202 192 187 193 196 195 196 196 196 196 195 196 197 197 195 195 196 196 195 194 194 194 192 188 187 180 171 165 170
340 331 12 18 16 21 30 35 32 29 21 23 30 15 192 181 183 180 181 183 189 187 189 193 195 197 196 193 193 192 194 197 198 197 194 190 188 187 181 175 175 175 172 173
3 1 360 10 18 20 30 37 37 36 34 27 29 41 102 177 177 173 174 174 178 181 185 188 191 194 194 196 195 196 198 199 197 192 187 184 183 178 176 177 177 179 195 232
22 16 17 11 11 20 32 36 38 41 42 36 38 53 112 152 159 158 160 168 175 179 182 187 195 197 196 195 193 192 192 194 189 184 181 179 178 178 181 189 199 216 259 283
25 26 28 28 26 31 38 40 42 43 46 48 50 67 81 97 113 134 145 160 167 178 179 185 189 192 194 191 189 188 185 182 181 180 180 182 186 192 200 214 237 253 272 283
33 35 36 35 32 37 44 46 45 47 49 52 57 73 86 91 95 109 124 160 162 171 173 182 181 180 183 182 179 176 177 179 182 187 191 197 205 217 228 241 258 274 283 284
25 28 31 34 37 39 43 46 49 52 49 48 51 60 64 66 72 104 126 138 144 158 165 169 167 173 177 177 175 177 182 191 203 216 229 235 239 244 251 261 266 271 275 279
25 26 28 29 32 36 38 39 42 45 47 47 45 44 42 40 36 8 258 229 212 207 206 206 206 204 203 202 204 209 215 219 222 226 234 242 253 261 263 264 268 271 274 280
21 22 23 25 27 25 23 27 32 34 33 31 30 27 23 18 6 352 332 308 280 263 254 247 243 242 240 235 234 234 235 237 240 244 248 252 259 265 266 268 271 274 276 276
21 20 20 19 18 15 19 22 21 19 15 10 5 1 354 349 339 332 320 304 292 281 274 269 266 265 264 261 258 256 256 255 256 257 258 261 262 265 270 275 277 276 274 273
10 10 7 6 8 9 8 8 5 1 358 354 350 345 340 335 327 318 309 304 299 292 285 280 276 273 271 270 268 266 265 266 265 265 265 265 267 269 271 272 272 272 272 273
1 1 1 355 354 357 357 354 354 350 345 344 345 335 330 326 320 315 310 307 302 297 293 289 285 282 280 278 277 275 273 271 270 270 270 271 273 273 272 272 271 271 272 272
354 351 350 349 343 344 345 343 340 341 339 335 332 334 329 323 317 313 309 306 302 299 296 293 290 288 286 284 281 279 278 276 274 273 272 271 271 270 270 270 270 270 270 271
Wind_Speed_850mb
61 53 29 36 49 57 51 61 42 61 63 54 23 21 18 32 31 26 36 41 44 48 49 47 44 42 41 41 42 42 43 44 46 47 50 52 53 53 52 51 50 50 50 51
54 42 59 48 47 53 51 61 56 61 59 48 37 56 34 41 37 39 43 49 53 52 50 48 45 43 40 39 37 36 36 36 39 41 42 40 39 39 38 38 37 38 37 38
46 58 36 52 62 64 59 67 65 59 78 34 14 21 49 66 54 57 60 58 57 58 52 47 48 44 41 38 36 33 31 32 32 32 33 34 35 35 34 34 33 34 34 34
26 20 44 38 52 52 64 72 71 62 48 52 57 61 66 70 73 67 71 69 63 59 53 53 52 49 44 41 39 37 36 35 35 35 36 37 37 37 36 36 35 35 35 34
16 33 6 12 23 64 51 70 65 58 67 56 27 43 51 82 86 83 82 80 71 73 65 56 55 55 51 47 45 43 41 38 37 38 39 38 37 36 35 35 35 33 34 36
11 25 33 62 22 29 22 43 43 66 77 69 37 21 38 90 104 101 103 91 73 76 69 66 59 59 56 52 49 45 41 39 40 42 43 42 41 39 37 34 31 31 32 32
40 18 14 8 26 63 35 50 42 75 90 81 34 69 134 75 87 109 109 88 82 74 88 70 63 64 62 57 51 46 45 47 49 50 48 44 40 36 30 26 23 24 24 24
26 30 40 28 43 49 67 10 31 70 93 60 81 97 103 80 85 82 89 100 101 88 91 81 74 74 66 60 57 55 53 52 52 50 46 41 34 30 28 25 22 20 17 15
23 23 5 65 22 6 12 29 8 44 59 84 85 95 88 86 89 82 73 77 91 87 85 84 79 72 67 64 62 55 53 52 50 46 41 36 32 29 25 20 16 13 13 13
8 15 11 49 4 11 13 11 13 21 27 34 73 79 93 99 98 93 87 84 87 89 88 79 76 74 70 65 61 58 55 50 48 44 42 39 34 29 23 17 14 13 11 11
7 8 7 8 23 31 25 17 21 20 26 36 38 48 65 78 82 79 84 81 81 88 86 78 74 73 71 68 61 56 53 51 52 49 45 42 39 34 27 21 14 9 7 8
5 20 19 15 42 38 33 21 19 21 18 20 18 25 31 46 54 63 67 68 73 73 71 70 68 66 65 63 60 57 56 57 55 53 49 45 38 31 25 19 17 15 16 13
17 53 43 42 26 32 34 24 21 15 24 24 25 24 28 38 49 49 49 55 60 61 59 59 58 57 57 57 57 57 57 58 57 52 48 42 35 30 27 26 22 19 17 12
42 47 6 24 27 39 28 17 11 8 11 12 18 20 26 34 42 46 48 53 53 51 50 51 50 50 53 55 57 58 57 54 52 49 43 38 34 32 27 23 21 20 17 13
55 32 25 29 24 30 24 18 14 8 9 5 1 7 17 26 33 40 46 48 47 44 44 46 46 47 49 53 54 54 52 49 46 44 41 38 36 33 30 28 24 20 16 11
49 21 36 42 41 45 41 32 27 26 18 17 10 2 9 18 26 33 37 38 39 42 43 44 45 46 49 50 50 47 46 45 45 43 41 39 36 33 30 28 25 21 15 8
41 53 64 58 52 48 46 40 35 32 30 25 20 11 3 13 23 26 28 32 34 36 37 39 43 45 46 46 45 44 45 44 42 41 39 38 37 35 31 28 22 15 10 8
27 25 30 33 37 39 41 41 41 39 37 29 22 14 7 12 15 19 21 23 25 28 30 32 34 37 39 39 40 41 40 39 40 40 41 40 36 31 26 20 15 10 11 15
32 33 35 39 38 37 39 42 42 37 31 27 20 18 16 15 15 16 17 18 19 19 21 23 24 27 31 33 35 37 39 40 40 39 37 34 31 26 23 17 15 17 20 25
33 33 33 33 34 40 41 39 35 32 30 27 23 19 18 19 17 13 12 11 14 13 15 17 21 23 26 30 34 35 36 36 34 34 31 28 25 21 24 24 24 26 30 35
38 37 35 33 32 35 38 37 34 33 31 25 22 21 17 12 9 7 9 8 12 15 16 20 21 23 26 29 30 29 29 28 28 26 28 33 38 39 37 35 38 40 42 43
34 34 34 33 32 31 36 36 33 29 28 25 22 19 16 11 6 2 2 4 6 8 11 15 18 23 26 31 34 35 37 40 40 40 40 41 39 40 44 49 49 47 46 47
32 32 32 32 34 34 32 31 31 30 28 25 23 20 17 14 12 9 6 7 8 11 14 18 22 24 26 29 31 33 35 38 41 45 47 47 45 48 53 52 52 50 51 51
28 29 32 32 31 29 29 32 30 29 27 26 24 22 20 18 17 16 15 16 17 18 21 25 28 32 34 35 36 38 41 43 46 47 46 46 49 54 53 54 57 58 58 56
28 30 31 30 29 32 32 31 30 28 26 26 26 26 26 25 25 25 26 28 30 31 32 34 36 39 41 42 43 45 47 49 50 52 55 59 61 62 61 60 61 60 59 58
29 32 35 38 38 39 38 38 36 36 37 33 28 31 32 33 33 34 35 36 37 39 40 40 43 45 47 49 51 52 54 55 57 59 61 62 61 61 61 61 61 62 63 63
28 30 29 28 31 35 38 41 45 43 43 47 46 40 40 41 42 44 45 46 47 48 49 49 49 50 52 52 53 54 55 56 57 58 59 62 62 63 63 64 65 65 66 67
Wind_Direction_850mb
236 254 203 208 211 209 208 220 214 236 240 244 241 267 260 277 271 248 230 226 222 221 220 218 216 213 210 213 219 226 228 228 231 233 236 240 245 249 253 256 258 260 260 260
245 232 237 222 214 209 214 226 232 248 253 243 230 241 248 255 249 248 236 229 223 218 218 218 216 211 205 203 205 209 213 217 221 226 231 235 240 244 248 252 254 255 256 257
242 221 223 231 208 211 216 222 215 225 233 221 191 215 231 247 247 239 236 231 225 216 210 207 204 201 201 200 203 208 214 218 222 226 230 235 238 240 242 244 247 250 252 254
243 211 217 231 216 210 212 221 223 238 248 235 232 235 239 244 246 244 238 232 229 212 206 204 202 197 200 205 211 217 221 225 227 230 231 231 231 232 234 236 241 246 252 259
243 219 300 252 198 198 198 228 219 229 245 244 252 224 235 236 243 246 242 240 232 211 204 206 208 205 207 212 218 220 222 223 225 229 230 230 231 232 235 239 245 252 258 262
247 230 220 233 158 164 179 260 207 216 232 234 212 225 240 228 228 237 243 243 240 219 211 216 216 213 213 215 214 213 217 225 232 234 235 235 235 236 240 246 254 260 262 267
223 246 268 200 166 140 172 233 210 211 226 230 212 224 239 238 237 236 241 245 245 229 218 221 220 216 214 214 213 216 224 233 236 237 235 236 236 238 241 245 248 254 260 266
214 219 248 155 154 168 211 264 235 205 226 226 222 234 241 237 238 236 237 241 242 235 224 222 220 216 213 215 215 222 230 234 233 230 230 229 228 228 226 228 228 235 245 258
192 219 326 174 204 2 356 217 228 214 223 222 226 232 237 235 230 229 228 231 233 230 218 214 214 214 216 218 222 229 233 231 227 222 218 215 213 215 212 208 210 227 249 265
139 229 199 208 353 226 19 337 265 234 246 238 233 237 238 238 233 230 229 231 227 216 210 209 209 214 218 221 227 229 227 224 220 214 208 203 200 197 199 201 212 228 257 284
272 28 319 87 21 340 306 292 325 283 266 269 262 254 246 241 236 231 227 223 218 212 205 205 208 212 217 223 225 224 221 216 210 203 196 194 192 192 196 201 201 207 234 253
346 9 317 296 342 332 327 327 294 293 292 266 246 251 245 234 226 220 214 210 204 202 201 204 209 214 218 219 219 217 213 206 201 197 193 194 194 193 197 198 210 217 223 222
317 317 294 297 310 331 335 321 310 281 274 268 245 241 228 225 214 207 201 204 206 207 208 209 208 210 214 214 211 207 205 201 198 196 195 195 193 195 198 193 199 202 201 199
334 345 359 355 328 337 338 341 334 308 278 261 242 238 220 215 209 208 209 212 214 211 204 203 204 205 205 204 203 200 197 199 198 196 195 195 195 196 198 198 201 193 187 169
348 2 332 327 339 7 16 16 36 12 359 351 85 202 206 202 192 187 193 196 195 196 196 196 196 195 196 197 197 195 195 196 196 195 194 194 194 192 188 187 180 171 165 170
340 331 12 18 16 21 30 35 32 29 21 23 30 15 192 181 183 180 181 183 189 187 189 193 195 197 196 193 193 192 194 197 198 197 194 190 188 187 181 175 175 175 172 173
3 1 360 10 18 20 30 37 37 36 34 27 29 41 102 177 177 173 174 174 178 181 185 188 191 194 194 196 195 196 198 199 197 192 187 184 183 178 176 177 177 179 195 232
22 16 17 11 11 20 32 36 38 41 42 36 38 53 112 152 159 158 160 168 175 179 182 187 195 197 196 195 193 192 192 194 189 184 181 179 178 178 181 189 199 216 259 283
25 26 28 28 26 31 38 40 42 43 46 48 50 67 81 97 113 134 145 160 167 178 179 185 189 192 194 191 189 188 185 182 181 180 180 182 186 192 200 214 237 253 272 283
33 35 36 35 32 37 44 46 45 47 49 52 57 73 86 91 95 109 124 160 162 171 173 182 181 180 183 182 179 176 177 179 182 187 191 197 205 217 228 241 258 274 283 284
25 28 31 34 37 39 43 46 49 52 49 48 51 60 64 66 72 104 126 138 144 158 165 169 167 173 177 177 175 177 182 191 203 216 229 235 239 244 251 261 266 271 275 279
25 26 28 29 32 36 38 39 42 45 47 47 45 44 42 40 36 8 258 229 212 207 206 206 206 204 203 202 204 209 215 219 222 226 234 242 253 261 263 264 268 271 274 280
21 22 23 25 27 25 23 27 32 34 33 31 30 27 23 18 6 352 332 308 280 263 254 247 243 242 240 235 234 234 235 237 240 244 248 252 259 265 266 268 271 274 276 276
21 20 20 19 18 15 19 22 21 19 15 10 5 1 354 349 339 332 320 304 292 281 274 269 266 265 264 261 258 256 256 255 256 257 258 261 262 265 270 275 277 276 274 273
10 10 7 6 8 9 8 8 5 1 358 354 350 345 340 335 327 318 309 304 299 292 285 280 276 273 271 270 268 266 265 266 265 265 265 265 267 269 271 272 272 272 272 273
1 1 1 355 354 357 357 354 354 350 345 344 345 335 330 326 320 315 310 307 302 297 293 289 285 282 280 278 277 275 273 271 270 270 270 271 273 273 272 272 271 271 272 272
354 351 350 349 343 344 345 343 340 341 339 335 332 334 329 323 317 313 309 306 302 299 296 293 290 288 286 284 281 279 278 276 274 273 272 271 271 270 270 270 270 270 270 271